Quantico, VA

4:17 PM EST on December 09, 2019 (GMT -0500)
Quantico Marine Corps Air Facility

Weather History for KNYG - October, 2019

Change the Weather History Date:

Friday, October 18, 2019

  Actual Average Record
Temperature  
Mean Temperature 58 °F -  
Max Temperature 66 °F 63 °F 80 °F (2005)
Min Temperature 50 °F 45 °F 35 °F (2001)
Degree Days  
Heating Degree Days 7    
Growing Degree Days 8 (Base 50)    
Moisture  
Dew Point 37 °F    
Average Humidity 50    
Maximum Humidity 74    
Minimum Humidity 33    
Precipitation  
Precipitation 0.00 in - - ()
Sea Level Pressure  
Sea Level Pressure 29.98 in    
Wind  
Wind Speed 9 mph (NNW)    
Max Wind Speed 18 mph    
Max Gust Speed 28 mph    
Visibility 10 miles    
Events      
Averages and records for this station are not official NWS values.
T = Trace of Precipitation, MM = Missing Value Source: NWS Daily Summary

Daily Weather History Graph

Daily Weather History Graph

Search for Another Location

Airport or City:

Astronomy

Oct. 18, 2019 Rise Set
Actual Time 7:21 AM EDT 6:27 PM EDT
Civil Twilight 6:54 AM EDT 6:53 PM EDT
Nautical Twilight 6:23 AM EDT 7:24 PM EDT
Astronomical Twilight 5:52 AM EDT 7:55 PM EDT
Moon 9:45 PM EDT (10/18) 11:49 AM EDT (10/18)
Length of Visible Light 11h 59m
Length of Day
11h 06m
Waning Gibbous, 79% of the Moon is Illuminated
Oct 18
Waning Gibbous
Oct 21
Last Quarter
Oct 27
New
Nov 4
First Quarter
Nov 12
Full

Hourly Weather History & Observations

Time (EDT) Temp. Dew Point Humidity Pressure Visibility Wind Dir Wind Speed Gust Speed Precip Events Conditions
12:56 AM 50.0 °F 35.1 °F 57% 29.87 in 10.0 mi NW 6.9 mph - N/A   Clear
1:56 AM 51.1 °F 35.1 °F 54% 29.88 in 10.0 mi Variable 3.5 mph - N/A   Clear
2:56 AM 51.1 °F 34.0 °F 52% 29.89 in 10.0 mi North 8.1 mph - N/A   Clear
3:56 AM 51.1 °F 34.0 °F 52% 29.90 in 10.0 mi NNW 9.2 mph - N/A   Clear
4:56 AM 51.1 °F 34.0 °F 52% 29.91 in 10.0 mi NNW 11.5 mph - N/A   Clear
5:56 AM 50.0 °F 35.1 °F 57% 29.94 in 10.0 mi NNW 10.4 mph - N/A   Clear
6:56 AM 50.0 °F 35.1 °F 57% 29.96 in 10.0 mi NNW 11.5 mph 17.3 mph N/A   Clear
7:56 AM 51.1 °F 35.1 °F 54% 29.98 in 10.0 mi NW 6.9 mph - N/A   Clear
8:56 AM 54.0 °F 36.0 °F 51% 30.00 in 10.0 mi Variable 6.9 mph - N/A   Clear
9:56 AM 55.9 °F 36.0 °F 47% 30.01 in 10.0 mi NNW 13.8 mph 19.6 mph N/A   Partly Cloudy
10:56 AM 59.0 °F 35.1 °F 41% 30.00 in 10.0 mi NNW 15.0 mph 26.5 mph N/A   Partly Cloudy
11:56 AM 60.1 °F 36.0 °F 41% 30.00 in 10.0 mi NW 17.3 mph 27.6 mph N/A   Partly Cloudy
12:56 PM 63.0 °F 36.0 °F 37% 30.01 in 10.0 mi NNW 18.4 mph 25.3 mph N/A   Partly Cloudy
1:56 PM 64.0 °F 36.0 °F 35% 29.99 in 10.0 mi NNW 15.0 mph 25.3 mph N/A   Partly Cloudy
2:56 PM 66.0 °F 36.0 °F 33% 29.97 in 10.0 mi NW 15.0 mph 19.6 mph N/A   Clear
3:56 PM 66.0 °F 36.0 °F 33% 29.97 in 10.0 mi NNW 16.1 mph - N/A   Clear
4:56 PM 64.9 °F 35.1 °F 33% 29.99 in 10.0 mi NNW 11.5 mph 20.7 mph N/A   Clear
5:56 PM 63.0 °F 36.0 °F 37% 30.01 in 10.0 mi NNW 5.8 mph - N/A   Clear
6:56 PM 55.9 °F 43.0 °F 62% 30.03 in 10.0 mi NW 4.6 mph - N/A   Clear
7:56 PM 54.0 °F 39.9 °F 59% 30.06 in 10.0 mi NNW 6.9 mph - N/A   Clear
8:56 PM 52.0 °F 41.0 °F 66% 30.06 in 10.0 mi North 8.1 mph - N/A   Clear
9:56 PM 51.1 °F 43.0 °F 74% 30.07 in 10.0 mi NNW 5.8 mph - N/A   Clear
10:56 PM 53.1 °F 37.9 °F 57% 30.08 in 10.0 mi North 6.9 mph - N/A   Clear
11:56 PM 54.0 °F 39.0 °F 57% 30.06 in 10.0 mi NNE 11.5 mph - N/A   Clear